R.E. Bob Woodruff Reservoir Weather Center

Moon Phase Calendar



R.E. Bob Woodruff Reservoir Water Level
Online Cameras

 


      

Current Conditions in Autauga
6/17/2024 2:35:48 AM

75°F
Feels Like 77
Clouds
Humidity
94%
Pressure
30.06"
Wind
0
Dew Point
74°F
UV Index
0/10 (Low)
Visibility
6 mi

Hourly Forecast

Date & Time Mon, Jun 17
2:00 AM
Mon, Jun 17
3:00 AM
Mon, Jun 17
4:00 AM
Mon, Jun 17
5:00 AM
Mon, Jun 17
6:00 AM
Mon, Jun 17
7:00 AM
Mon, Jun 17
8:00 AM
Mon, Jun 17
9:00 AM
Mon, Jun 17
10:00 AM
Mon, Jun 17
11:00 AM
Mon, Jun 17
12:00 PM
Mon, Jun 17
1:00 PM
Mon, Jun 17
2:00 PM
Mon, Jun 17
3:00 PM
Mon, Jun 17
4:00 PM
Mon, Jun 17
5:00 PM
Mon, Jun 17
6:00 PM
Mon, Jun 17
7:00 PM
Mon, Jun 17
8:00 PM
Mon, Jun 17
9:00 PM
Mon, Jun 17
10:00 PM
Mon, Jun 17
11:00 PM
Tue, Jun 18
12:00 AM
Tue, Jun 18
1:00 AM
Tue, Jun 18
2:00 AM
Tue, Jun 18
3:00 AM
Tue, Jun 18
4:00 AM
Tue, Jun 18
5:00 AM
Tue, Jun 18
6:00 AM
Tue, Jun 18
7:00 AM
Tue, Jun 18
8:00 AM
Tue, Jun 18
9:00 AM
Tue, Jun 18
10:00 AM
Tue, Jun 18
11:00 AM
Tue, Jun 18
12:00 PM
Tue, Jun 18
1:00 PM
Tue, Jun 18
2:00 PM
Tue, Jun 18
3:00 PM
Tue, Jun 18
4:00 PM
Tue, Jun 18
5:00 PM
Tue, Jun 18
6:00 PM
Tue, Jun 18
7:00 PM
Tue, Jun 18
8:00 PM
Tue, Jun 18
9:00 PM
Tue, Jun 18
10:00 PM
Tue, Jun 18
11:00 PM
Wed, Jun 19
12:00 AM
Wed, Jun 19
1:00 AM
Condition
Clouds

Clouds

Clouds

Clouds

Clouds

Clouds

Clouds

Clouds

Clouds

Clouds

Rain

Rain

Rain

Clouds

Clouds

Clouds

Clouds

Clouds

Clouds

Clouds

Clouds

Clouds

Clouds

Clouds

Clouds

Clouds

Clouds

Clouds

Clouds

Clouds

Clouds

Clouds

Clouds

Clouds

Clouds

Clouds

Clouds

Clouds

Clouds

Clouds

Clouds

Clouds

Clouds

Clouds

Clouds

Clouds

Clouds

Clouds
Temperature 75°F75°F75°F74°F74°F75°F78°F82°F84°F87°F89°F88°F86°F88°F89°F89°F87°F83°F80°F79°F78°F78°F78°F77°F78°F78°F76°F75°F73°F73°F75°F77°F79°F82°F86°F88°F89°F90°F90°F88°F86°F83°F80°F79°F78°F77°F78°F78°F
Feels Like 77°F77°F77°F76°F75°F76°F80°F85°F89°F93°F95°F95°F92°F95°F94°F93°F90°F87°F80°F79°F79°F78°F78°F78°F79°F78°F76°F75°F74°F74°F76°F78°F79°F85°F88°F89°F89°F89°F90°F89°F88°F84°F80°F79°F78°F77°F77°F78°F
Cloudiness 52%40%52%64%76%88%92%88%78%74%73%77%100%100%100%100%100%100%100%100%100%100%100%100%100%100%100%100%100%100%100%100%100%100%100%100%100%100%100%100%100%100%100%100%100%100%100%100%
Visibility 6 mi6 mi6 mi6 mi6 mi6 mi6 mi6 mi6 mi6 mi6 mi6 mi6 mi6 mi6 mi6 mi6 mi6 mi6 mi6 mi6 mi6 mi6 mi6 mi6 mi6 mi6 mi6 mi6 mi6 mi6 mi6 mi6 mi6 mi6 mi6 mi6 mi6 mi6 mi6 mi6 mi6 mi6 mi6 mi6 mi6 mi6 mi6 mi
Precipitation 3%7%5%3%2%1%0%0%0%0%25%61%80%73%63%55%52%42%0%0%0%0%0%0%0%0%0%0%0%0%0%0%0%0%0%0%0%0%0%0%0%0%0%0%0%0%0%0%
Humidity 92%94%93%92%92%87%77%69%64%59%56%59%64%57%52%48%53%63%66%66%68%70%70%68%63%60%63%66%70%75%74%72%69%62%50%42%39%38%40%43%48%54%56%56%56%53%51%56%
Dew Point 73°F74°F73°F72°F71°F71°F70°F70°F70°F71°F71°F71°F72°F72°F69°F67°F67°F69°F67°F67°F67°F67°F67°F66°F64°F63°F62°F62°F63°F65°F66°F67°F68°F68°F65°F63°F61°F61°F62°F63°F64°F64°F63°F62°F61°F59°F58°F61°F
Pressure 30.06"30.06"30.06"30.06"30.03"30.06"30.06"30.09"30.06"30.06"30.06"30.06"30.03"30.03"30"30"30"30"30"30"30.03"30.03"30.03"30.03"30.03"30.03"30.03"30.06"30.06"30.06"30.09"30.09"30.09"30.09"30.06"30.03"30.03"30"30"30"30"30"30.03"30.03"30.06"30.06"30.03"30.06"
Wind Speed 3.2 mph4.6 mph4.6 mph4.8 mph5.5 mph6.2 mph7.2 mph9.3 mph9.7 mph9.7 mph10.5 mph12.8 mph10.1 mph10.8 mph9.2 mph11.6 mph12 mph6.3 mph2.6 mph2.7 mph5.1 mph4.8 mph5.6 mph6.7 mph8.2 mph8.8 mph8 mph9 mph9.9 mph10.2 mph11.5 mph13.3 mph13.1 mph13 mph12.7 mph13.7 mph13.4 mph12.5 mph12 mph10.4 mph10.2 mph8.5 mph6.1 mph6 mph6.8 mph7.5 mph10.7 mph11.6 mph
Wind
Direction
100°
E
111°
ESE
125°
SE
113°
ESE
103°
ESE
114°
ESE
117°
ESE
116°
ESE
113°
ESE
111°
ESE
115°
ESE
140°
SE
142°
SE
146°
SE
157°
SSE
152°
SSE
157°
SSE
177°
S
201°
SSW
126°
SE
98°
E
97°
E
93°
E
100°
E
111°
ESE
110°
ESE
107°
ESE
98°
E
94°
E
92°
E
96°
E
101°
E
106°
ESE
98°
E
97°
E
99°
E
101°
E
97°
E
89°
E
103°
ESE
90°
E
91°
E
92°
E
78°
ENE
68°
ENE
74°
ENE
88°
E
99°
E

Daily Forecast

Date High Low Precip. Humidity
Today
Jun 17

Rain
89 °F
74 °F
80%
56%
Tuesday
Jun 18

Clouds
90 °F
73 °F
0%
50%
Wednesday
Jun 19

Clouds
90 °F
74 °F
0%
49%
Thursday
Jun 20

Clouds
93 °F
72 °F
0%
39%
Friday
Jun 21

Clouds
94 °F
70 °F
0%
38%
Saturday
Jun 22

Clear
96 °F
71 °F
0%
29%
Sunday
Jun 23

Clear
98 °F
72 °F
0%
30%
Monday
Jun 24

Clear
99 °F
74 °F
0%
36%
Tuesday
Jun 25

Rain
98 °F
74 °F
100%
39%
Wednesday
Jun 26

Rain
94 °F
74 °F
100%
55%
Thursday
Jun 27

Rain
87 °F
73 °F
100%
63%
Friday
Jun 28

Rain
88 °F
71 °F
100%
56%
Saturday
Jun 29

Clouds
80 °F
70 °F
18%
67%
Sunday
Jun 30

Clouds
89 °F
69 °F
0%
43%
Monday
Jul 1

Clear
93 °F
71 °F
0%
36%
Tuesday
Jul 2

Clear
94 °F
70 °F
0%
32%

Temperature 8-14 Day Outlook



Precipitation 8-14 Day Outlook






About Us
Contact Us
Site Map
Search Site
Advertise With Us
   
Woodruff.USLakes.info
THE R.E. BOB WOODRUFF RESERVOIR WEBSITE

Copyright 2024, Lakes Online
Privacy    |    Legal